Time,TemperatureF,DewpointF,PressureIn,WindDirection,WindDirectionDegrees,WindSpeedMPH,WindSpeedGustMPH,Humidity,HourlyPrecipIn,Conditions,Clouds,dailyrainin,SolarRadiationWatts/m^2,SoftwareType,DateUTC
2013-02-22 00:00:00,50.0,39.5,30.17,ESE,115,0.0,0.0,67,0.00,,---,0.00,0.00,VWS V14.01,2013-02-22 05:00:00,
2013-02-22 00:01:00,50.0,39.5,30.17,ESE,115,0.0,0.0,67,0.00,,---,0.00,0.00,VWS V14.01,2013-02-22 05:01:00,
2013-02-22 00:06:00,49.9,39.8,30.17,ESE,115,0.0,0.0,68,0.00,,---,0.00,0.00,VWS V14.01,2013-02-22 05:06:00,
2013-02-22 00:11:00,49.8,39.7,30.17,ESE,115,0.0,0.0,68,0.00,,---,0.00,0.00,VWS V14.01,2013-02-22 05:11:00,
2013-02-22 00:19:00,49.7,40.0,30.17,ESE,115,0.0,0.0,69,0.00,,---,0.00,0.00,VWS V14.01,2013-02-22 05:19:00,
2013-02-22 00:24:00,49.7,40.3,30.17,ESE,115,0.0,1.0,70,0.00,,---,0.00,0.00,VWS V14.01,2013-02-22 05:24:00,
2013-02-22 00:29:00,49.6,40.6,30.16,ESE,115,0.0,0.0,71,0.00,,---,0.00,0.00,VWS V14.01,2013-02-22 05:29:00,
2013-02-22 00:34:00,49.5,40.9,30.16,ESE,115,0.0,1.0,72,0.00,,---,0.00,0.00,VWS V14.01,2013-02-22 05:34:00,
2013-02-22 00:39:00,49.3,40.7,30.16,ESE,115,0.0,2.0,72,0.00,,---,0.00,0.00,VWS V14.01,2013-02-22 05:39:00,
2013-02-22 00:44:00,49.2,40.9,30.16,ESE,115,0.0,1.0,73,0.00,,---,0.00,0.00,VWS V14.01,2013-02-22 05:44:00,
2013-02-22 00:49:00,49.1,40.8,30.16,ESE,115,0.0,1.0,73,0.00,,---,0.00,0.00,VWS V14.01,2013-02-22 05:49:00,
2013-02-22 00:54:00,48.9,40.6,30.17,ESE,115,0.0,0.0,73,0.00,,---,0.00,0.00,VWS V14.01,2013-02-22 05:54:00,
2013-02-22 00:59:00,48.8,40.5,30.17,ESE,115,0.0,1.0,73,0.00,,---,0.00,0.00,VWS V14.01,2013-02-22 05:59:00,
2013-02-22 01:04:00,48.6,40.7,30.17,ESE,115,0.0,0.0,74,0.00,,---,0.00,0.00,VWS V14.01,2013-02-22 06:04:00,
2013-02-22 01:09:00,48.5,40.6,30.17,ESE,115,0.0,1.0,74,0.00,,---,0.00,0.00,VWS V14.01,2013-02-22 06:09:00,
2013-02-22 01:15:00,48.4,40.5,30.16,ESE,113,0.0,4.0,74,0.00,,---,0.00,0.00,VWS V14.01,2013-02-22 06:15:00,
2013-02-22 01:20:00,48.2,40.3,30.16,ESE,111,0.0,4.0,74,0.00,,---,0.00,0.00,VWS V14.01,2013-02-22 06:20:00,
2013-02-22 01:25:00,48.1,40.2,30.16,ESE,103,2.0,4.0,74,0.00,,---,0.00,0.00,VWS V14.01,2013-02-22 06:25:00,
2013-02-22 01:30:00,48.0,40.5,30.16,ESE,103,0.0,2.0,75,0.00,,---,0.00,0.00,VWS V14.01,2013-02-22 06:30:00,
2013-02-22 01:35:00,47.9,40.4,30.17,ESE,103,0.0,0.0,75,0.00,,---,0.00,0.00,VWS V14.01,2013-02-22 06:35:00,
2013-02-22 01:40:00,47.9,40.4,30.17,East,101,0.0,4.0,75,0.00,,---,0.00,0.00,VWS V14.01,2013-02-22 06:40:00,
2013-02-22 01:45:00,47.9,40.4,30.16,East,101,0.0,1.0,75,0.00,,---,0.00,0.00,VWS V14.01,2013-02-22 06:45:00,
2013-02-22 01:50:00,47.8,40.3,30.16,East,101,0.0,1.0,75,0.00,,---,0.00,0.00,VWS V14.01,2013-02-22 06:50:00,
2013-02-22 01:55:00,47.8,40.3,30.17,East,101,0.0,2.0,75,0.00,,---,0.00,0.00,VWS V14.01,2013-02-22 06:55:00,
2013-02-22 02:00:00,47.8,40.3,30.17,East,101,0.0,0.0,75,0.00,,---,0.00,0.00,VWS V14.01,2013-02-22 07:00:00,
2013-02-22 02:05:00,47.8,40.6,30.17,East,101,1.0,1.0,76,0.00,,---,0.00,0.00,VWS V14.01,2013-02-22 07:05:00,
2013-02-22 02:10:00,47.8,40.6,30.17,East,101,0.0,1.0,76,0.00,,---,0.00,0.00,VWS V14.01,2013-02-22 07:10:00,
2013-02-22 02:15:00,47.8,41.0,30.17,East,101,0.0,1.0,77,0.00,,---,0.00,0.00,VWS V14.01,2013-02-22 07:15:00,
2013-02-22 02:20:00,47.9,41.0,30.18,East,101,0.0,1.0,77,0.00,,---,0.00,0.00,VWS V14.01,2013-02-22 07:20:00,
2013-02-22 02:25:00,48.0,40.8,30.18,East,101,1.0,2.0,76,0.00,,---,0.00,0.00,VWS V14.01,2013-02-22 07:25:00,
2013-02-22 02:31:00,48.1,41.2,30.19,East,101,0.0,4.0,77,0.00,,---,0.00,0.00,VWS V14.01,2013-02-22 07:31:00,
2013-02-22 02:36:00,48.3,41.4,30.18,ENE,67,0.0,5.0,77,0.00,,---,0.00,0.00,VWS V14.01,2013-02-22 07:36:00,
2013-02-22 02:41:00,48.4,41.5,30.18,ENE,65,0.0,5.0,77,0.00,,---,0.00,0.00,VWS V14.01,2013-02-22 07:41:00,
2013-02-22 02:46:00,48.5,41.3,30.18,ENE,66,2.0,3.0,76,0.00,,---,0.00,0.00,VWS V14.01,2013-02-22 07:46:00,
2013-02-22 02:51:00,48.7,41.1,30.18,NE,55,3.0,6.0,75,0.00,,---,0.00,0.00,VWS V14.01,2013-02-22 07:51:00,
2013-02-22 02:56:00,48.8,40.9,30.18,ENE,63,1.0,6.0,74,0.00,,---,0.00,0.00,VWS V14.01,2013-02-22 07:56:00,
2013-02-22 03:01:00,48.9,40.6,30.18,ENE,71,1.0,6.0,73,0.00,,---,0.00,0.00,VWS V14.01,2013-02-22 08:01:00,
2013-02-22 03:06:00,49.0,40.7,30.19,ENE,65,2.0,4.0,73,0.00,,---,0.00,0.00,VWS V14.01,2013-02-22 08:06:00,
2013-02-22 03:11:00,49.0,40.0,30.18,ENE,63,3.0,6.0,71,0.00,,---,0.00,0.00,VWS V14.01,2013-02-22 08:11:00,
2013-02-22 03:16:00,49.1,39.8,30.19,NNE,24,3.0,6.0,70,0.00,,---,0.00,0.00,VWS V14.01,2013-02-22 08:16:00,
2013-02-22 03:21:00,49.2,39.5,30.18,ENE,71,3.0,6.0,69,0.00,,---,0.00,0.00,VWS V14.01,2013-02-22 08:21:00,
2013-02-22 03:26:00,49.3,38.8,30.18,ENE,59,3.0,7.0,67,0.00,,---,0.00,0.00,VWS V14.01,2013-02-22 08:26:00,
2013-02-22 03:31:00,49.4,38.5,30.18,NE,53,6.0,7.0,66,0.00,,---,0.00,0.00,VWS V14.01,2013-02-22 08:31:00,
2013-02-22 03:36:00,49.5,38.2,30.18,ENE,65,3.0,7.0,65,0.00,,---,0.00,0.00,VWS V14.01,2013-02-22 08:36:00,
2013-02-22 03:41:00,49.6,37.9,30.18,ENE,60,0.0,5.0,64,0.00,,---,0.00,0.00,VWS V14.01,2013-02-22 08:41:00,
2013-02-22 03:46:00,49.6,37.9,30.19,ENE,63,0.0,4.0,64,0.00,,---,0.00,0.00,VWS V14.01,2013-02-22 08:46:00,
2013-02-22 03:51:00,49.6,37.1,30.19,ENE,57,4.0,6.0,62,0.00,,---,0.00,0.00,VWS V14.01,2013-02-22 08:51:00,
2013-02-22 03:56:00,49.6,37.1,30.19,ENE,64,5.0,7.0,62,0.00,,---,0.00,0.00,VWS V14.01,2013-02-22 08:56:00,
2013-02-22 04:01:00,49.7,37.2,30.19,NNE,32,3.0,6.0,62,0.00,,---,0.00,0.00,VWS V14.01,2013-02-22 09:01:00,
2013-02-22 04:06:00,49.7,37.2,30.18,NE,50,2.0,6.0,62,0.00,,---,0.00,0.00,VWS V14.01,2013-02-22 09:06:00,
2013-02-22 04:11:00,49.7,36.8,30.18,ENE,66,0.0,6.0,61,0.00,,---,0.00,0.00,VWS V14.01,2013-02-22 09:11:00,
2013-02-22 04:16:00,49.7,37.2,30.18,ENE,67,0.0,6.0,62,0.00,,---,0.00,0.00,VWS V14.01,2013-02-22 09:16:00,
2013-02-22 04:21:00,49.6,36.7,30.18,NE,55,3.0,7.0,61,0.00,,---,0.00,0.00,VWS V14.01,2013-02-22 09:21:00,
2013-02-22 04:26:00,49.7,36.8,30.18,ENE,66,0.0,8.0,61,0.00,,---,0.00,0.00,VWS V14.01,2013-02-22 09:26:00,
2013-02-22 04:31:00,49.7,36.8,30.18,East,92,5.0,6.0,61,0.00,,---,0.00,0.00,VWS V14.01,2013-02-22 09:31:00,
2013-02-22 04:36:00,49.6,36.7,30.18,ENE,60,4.0,8.0,61,0.00,,---,0.00,0.00,VWS V14.01,2013-02-22 09:36:00,
2013-02-22 04:41:00,49.6,36.7,30.18,ENE,67,2.0,8.0,61,0.00,,---,0.00,0.00,VWS V14.01,2013-02-22 09:41:00,
2013-02-22 04:46:00,49.6,37.1,30.18,ENE,62,5.0,8.0,62,0.00,,---,0.00,0.00,VWS V14.01,2013-02-22 09:46:00,
2013-02-22 04:51:00,49.5,37.0,30.18,ESE,108,4.0,8.0,62,0.00,,---,0.00,0.00,VWS V14.01,2013-02-22 09:51:00,
2013-02-22 04:56:00,49.4,36.5,30.18,NE,54,4.0,9.0,61,0.00,,---,0.00,0.00,VWS V14.01,2013-02-22 09:56:00,
2013-02-22 05:01:00,49.3,36.4,30.18,ENE,57,3.0,8.0,61,0.00,,---,0.00,0.00,VWS V14.01,2013-02-22 10:01:00,
2013-02-22 05:06:00,49.2,36.3,30.17,East,87,0.0,8.0,61,0.00,,---,0.00,0.00,VWS V14.01,2013-02-22 10:06:00,
2013-02-22 05:11:00,49.1,36.7,30.17,East,86,2.0,11.0,62,0.00,,---,0.00,0.00,VWS V14.01,2013-02-22 10:11:00,
2013-02-22 05:16:00,48.9,36.5,30.17,ENE,61,3.0,6.0,62,0.00,,---,0.00,0.00,VWS V14.01,2013-02-22 10:16:00,
2013-02-22 05:21:00,48.8,36.4,30.17,ENE,74,0.0,2.0,62,0.00,,---,0.00,0.00,VWS V14.01,2013-02-22 10:21:00,
2013-02-22 05:27:00,48.7,36.3,30.19,ENE,67,3.0,4.0,62,0.00,,---,0.00,0.00,VWS V14.01,2013-02-22 10:27:00,
2013-02-22 05:32:00,48.6,35.8,30.18,NNE,30,4.0,4.0,61,0.00,,---,0.00,0.00,VWS V14.01,2013-02-22 10:32:00,
2013-02-22 05:37:00,48.5,36.1,30.17,ENE,64,3.0,3.0,62,0.00,,---,0.00,0.00,VWS V14.01,2013-02-22 10:37:00,
2013-02-22 05:44:00,48.4,35.2,30.17,ENE,61,5.0,6.0,60,0.00,,---,0.00,0.00,VWS V14.01,2013-02-22 10:44:00,
2013-02-22 05:49:00,48.3,35.1,30.18,ENE,69,0.0,4.0,60,0.00,,---,0.00,0.00,VWS V14.01,2013-02-22 10:49:00,
2013-02-22 05:54:00,48.3,34.7,30.18,NE,56,0.0,7.0,59,0.00,,---,0.00,0.00,VWS V14.01,2013-02-22 10:54:00,
2013-02-22 05:59:00,48.2,35.4,30.18,ENE,72,2.0,5.0,61,0.00,,---,0.00,0.00,VWS V14.01,2013-02-22 10:59:00,
2013-02-22 06:04:00,48.1,35.3,30.17,East,90,0.0,7.0,61,0.00,,---,0.00,0.00,VWS V14.01,2013-02-22 11:04:00,
2013-02-22 06:09:00,47.8,35.4,30.17,ENE,64,5.0,5.0,62,0.00,,---,0.00,0.00,VWS V14.01,2013-02-22 11:09:00,
2013-02-22 06:14:00,47.7,35.3,30.16,ENE,61,2.0,4.0,62,0.00,,---,0.00,0.00,VWS V14.01,2013-02-22 11:14:00,
2013-02-22 06:19:00,47.6,34.8,30.17,ENE,74,0.0,8.0,61,0.00,,---,0.00,0.00,VWS V14.01,2013-02-22 11:19:00,
2013-02-22 06:24:00,47.6,34.8,30.17,East,89,2.0,6.0,61,0.00,,---,0.00,0.00,VWS V14.01,2013-02-22 11:24:00,
2013-02-22 06:30:00,47.6,35.2,30.17,ENE,78,0.0,8.0,62,0.00,,---,0.00,0.00,VWS V14.01,2013-02-22 11:30:00,
2013-02-22 06:35:00,47.6,35.6,30.18,East,81,0.0,5.0,63,0.00,,---,0.00,0.00,VWS V14.01,2013-02-22 11:35:00,
2013-02-22 06:40:00,47.5,35.9,30.17,ENE,63,4.0,12.0,64,0.00,,---,0.00,0.00,VWS V14.01,2013-02-22 11:40:00,
2013-02-22 06:45:00,47.3,36.9,30.17,ENE,72,2.0,6.0,67,0.00,,---,0.00,0.00,VWS V14.01,2013-02-22 11:45:00,
2013-02-22 06:50:00,47.0,37.7,30.17,ENE,61,0.0,5.0,70,0.01,,---,0.01,0.00,VWS V14.01,2013-02-22 11:50:00,
2013-02-22 06:55:00,46.5,38.3,30.17,ENE,61,4.0,4.0,73,0.02,,---,0.02,0.00,VWS V14.01,2013-02-22 11:55:00,
2013-02-22 07:00:00,46.0,38.9,30.17,ENE,76,5.0,5.0,76,0.04,,---,0.04,0.00,VWS V14.01,2013-02-22 12:00:00,
2013-02-22 07:05:00,45.4,39.0,30.17,ENE,61,0.0,5.0,78,0.05,,---,0.05,0.00,VWS V14.01,2013-02-22 12:05:00,
2013-02-22 07:10:00,44.9,39.1,30.18,East,98,0.0,5.0,80,0.06,,---,0.06,0.00,VWS V14.01,2013-02-22 12:10:00,
2013-02-22 07:15:00,44.6,39.5,30.19,East,99,0.0,4.0,82,0.08,,---,0.08,0.00,VWS V14.01,2013-02-22 12:15:00,
2013-02-22 07:20:00,44.3,39.5,30.21,East,89,0.0,0.0,83,0.12,,---,0.12,0.00,VWS V14.01,2013-02-22 12:20:00,
2013-02-22 07:25:00,44.2,40.0,30.21,NE,44,0.0,3.0,85,0.14,,---,0.14,0.00,VWS V14.01,2013-02-22 12:25:00,
2013-02-22 07:30:00,43.9,40.0,30.20,ENE,70,3.0,4.0,86,0.18,,---,0.18,0.00,VWS V14.01,2013-02-22 12:30:00,
2013-02-22 07:35:00,43.6,40.0,30.19,ENE,62,2.0,6.0,87,0.21,,---,0.21,0.00,VWS V14.01,2013-02-22 12:35:00,
2013-02-22 07:40:00,43.4,40.1,30.19,ENE,59,5.0,5.0,88,0.23,,---,0.23,9.00,VWS V14.01,2013-02-22 12:40:00,
2013-02-22 07:45:00,43.3,40.3,30.19,ENE,60,0.0,6.0,89,0.25,,---,0.25,9.00,VWS V14.01,2013-02-22 12:45:00,
2013-02-22 07:51:00,43.2,40.2,30.20,NE,55,2.0,5.0,89,0.26,,---,0.26,5.00,VWS V14.01,2013-02-22 12:51:00,
2013-02-22 07:56:00,43.2,40.5,30.20,ENE,76,0.0,7.0,90,0.25,,---,0.26,7.00,VWS V14.01,2013-02-22 12:56:00,
2013-02-22 08:01:00,43.1,40.4,30.20,ENE,63,3.0,6.0,90,0.25,,---,0.28,9.00,VWS V14.01,2013-02-22 13:01:00,
2013-02-22 08:06:00,43.1,40.4,30.20,East,89,2.0,7.0,90,0.26,,---,0.30,23.00,VWS V14.01,2013-02-22 13:06:00,
2013-02-22 08:11:00,43.1,40.4,30.21,East,85,0.0,6.0,90,0.24,,---,0.30,19.00,VWS V14.01,2013-02-22 13:11:00,
2013-02-22 08:16:00,43.0,40.3,30.21,NE,56,5.0,11.0,90,0.23,,---,0.30,26.00,VWS V14.01,2013-02-22 13:16:00,
2013-02-22 08:21:00,42.9,40.2,30.22,ENE,62,3.0,7.0,90,0.23,,---,0.32,32.00,VWS V14.01,2013-02-22 13:21:00,
2013-02-22 08:26:00,42.9,40.2,30.22,ENE,63,1.0,6.0,90,0.20,,---,0.32,26.00,VWS V14.01,2013-02-22 13:26:00,
2013-02-22 08:31:00,42.8,40.1,30.22,ENE,59,2.0,7.0,90,0.18,,---,0.32,21.00,VWS V14.01,2013-02-22 13:31:00,
2013-02-22 08:36:00,42.7,40.0,30.21,East,101,6.0,6.0,90,0.15,,---,0.33,35.00,VWS V14.01,2013-02-22 13:36:00,
2013-02-22 08:41:00,42.6,40.2,30.21,ESE,105,5.0,6.0,91,0.14,,---,0.35,33.00,VWS V14.01,2013-02-22 13:41:00,
2013-02-22 08:46:00,42.5,39.8,30.20,ENE,66,5.0,8.0,90,0.12,,---,0.36,42.00,VWS V14.01,2013-02-22 13:46:00,
2013-02-22 08:51:00,42.4,40.0,30.19,ESE,113,4.0,7.0,91,0.12,,---,0.37,46.00,VWS V14.01,2013-02-22 13:51:00,
2013-02-22 08:56:00,42.3,39.9,30.19,ESE,114,0.0,12.0,91,0.12,,---,0.38,37.00,VWS V14.01,2013-02-22 13:56:00,
2013-02-22 09:01:00,42.3,39.9,30.17,East,97,4.0,13.0,91,0.11,,---,0.38,86.00,VWS V14.01,2013-02-22 14:01:00,
2013-02-22 09:06:00,42.2,39.8,30.17,ESE,120,2.0,14.0,91,0.11,,---,0.40,121.00,VWS V14.01,2013-02-22 14:06:00,
2013-02-22 09:11:00,42.2,39.8,30.17,East,98,4.0,12.0,91,0.10,,---,0.40,142.00,VWS V14.01,2013-02-22 14:11:00,
2013-02-22 09:16:00,42.3,39.9,30.17,East,92,1.0,1.0,91,0.09,,---,0.40,162.00,VWS V14.01,2013-02-22 14:16:00,
2013-02-22 09:21:00,42.4,40.0,30.18,ENE,64,2.0,3.0,91,0.08,,---,0.40,91.00,VWS V14.01,2013-02-22 14:21:00,
2013-02-22 09:26:00,42.5,40.1,30.18,East,85,0.0,3.0,91,0.08,,---,0.40,74.00,VWS V14.01,2013-02-22 14:26:00,
2013-02-22 09:32:00,42.6,40.4,30.19,ESE,121,6.0,7.0,92,0.08,,---,0.40,98.00,VWS V14.01,2013-02-22 14:32:00,
2013-02-22 09:37:00,42.7,40.5,30.18,ESE,111,1.0,2.0,92,0.07,,---,0.40,81.00,VWS V14.01,2013-02-22 14:37:00,
2013-02-22 09:42:00,42.8,40.6,30.19,SE,125,7.0,7.0,92,0.05,,---,0.40,51.00,VWS V14.01,2013-02-22 14:42:00,
2013-02-22 09:47:00,42.8,40.4,30.19,ESE,107,0.0,4.0,91,0.04,,---,0.40,44.00,VWS V14.01,2013-02-22 14:47:00,
2013-02-22 09:52:00,42.8,40.4,30.19,ESE,103,12.0,12.0,91,0.04,,---,0.41,51.00,VWS V14.01,2013-02-22 14:52:00,
2013-02-22 09:57:00,42.8,40.4,30.18,ESE,110,2.0,7.0,91,0.03,,---,0.41,46.00,VWS V14.01,2013-02-22 14:57:00,
2013-02-22 10:02:00,42.8,40.4,30.19,East,95,2.0,8.0,91,0.04,,---,0.42,42.00,VWS V14.01,2013-02-22 15:02:00,
2013-02-22 10:07:00,42.9,40.5,30.19,ESE,114,0.0,4.0,91,0.02,,---,0.42,39.00,VWS V14.01,2013-02-22 15:07:00,
2013-02-22 10:12:00,42.9,40.7,30.19,ESE,103,1.0,4.0,92,0.04,,---,0.44,51.00,VWS V14.01,2013-02-22 15:12:00,
2013-02-22 10:17:00,42.8,40.4,30.18,East,86,2.0,6.0,91,0.06,,---,0.46,67.00,VWS V14.01,2013-02-22 15:17:00,
2013-02-22 10:22:00,42.9,40.7,30.18,ESE,117,6.0,8.0,92,0.06,,---,0.46,90.00,VWS V14.01,2013-02-22 15:22:00,
2013-02-22 10:27:00,43.0,40.8,30.17,East,98,2.0,7.0,92,0.07,,---,0.47,107.00,VWS V14.01,2013-02-22 15:27:00,
2013-02-22 10:32:00,43.1,40.9,30.18,East,87,0.0,0.0,92,0.08,,---,0.48,60.00,VWS V14.01,2013-02-22 15:32:00,
2013-02-22 10:37:00,43.1,40.9,30.18,East,90,4.0,4.0,92,0.08,,---,0.48,90.00,VWS V14.01,2013-02-22 15:37:00,
2013-02-22 10:43:00,43.2,41.0,30.17,SE,139,0.0,5.0,92,0.08,,---,0.48,116.00,VWS V14.01,2013-02-22 15:43:00,
2013-02-22 10:48:00,43.3,41.1,30.17,ESE,103,5.0,5.0,92,0.09,,---,0.49,109.00,VWS V14.01,2013-02-22 15:48:00,
2013-02-22 10:53:00,43.3,41.1,30.17,East,93,2.0,2.0,92,0.09,,---,0.50,95.00,VWS V14.01,2013-02-22 15:53:00,
2013-02-22 10:58:00,43.4,41.2,30.18,NE,51,1.0,4.0,92,0.09,,---,0.50,93.00,VWS V14.01,2013-02-22 15:58:00,
2013-02-22 11:03:00,43.4,41.2,30.18,East,86,0.0,3.0,92,0.08,,---,0.50,62.00,VWS V14.01,2013-02-22 16:03:00,
2013-02-22 11:08:00,43.4,41.2,30.19,ENE,71,0.0,4.0,92,0.08,,---,0.50,46.00,VWS V14.01,2013-02-22 16:08:00,
2013-02-22 11:13:00,43.4,41.5,30.18,East,84,0.0,3.0,93,0.06,,---,0.50,54.00,VWS V14.01,2013-02-22 16:13:00,
2013-02-22 11:18:00,43.4,41.2,30.19,ENE,70,1.0,4.0,92,0.04,,---,0.50,40.00,VWS V14.01,2013-02-22 16:18:00,
2013-02-22 11:23:00,43.4,41.5,30.19,ENE,57,0.0,5.0,93,0.04,,---,0.50,54.00,VWS V14.01,2013-02-22 16:23:00,
2013-02-22 11:28:00,43.4,41.5,30.19,NE,40,1.0,3.0,93,0.03,,---,0.50,69.00,VWS V14.01,2013-02-22 16:28:00,
2013-02-22 11:33:00,43.5,41.6,30.18,NE,40,0.0,0.0,93,0.02,,---,0.50,69.00,VWS V14.01,2013-02-22 16:33:00,
2013-02-22 11:38:00,43.5,41.6,30.18,NNE,32,0.0,1.0,93,0.02,,---,0.50,49.00,VWS V14.01,2013-02-22 16:38:00,
2013-02-22 11:43:00,43.6,41.7,30.17,ENE,59,2.0,4.0,93,0.02,,---,0.50,65.00,VWS V14.01,2013-02-22 16:43:00,
2013-02-22 11:48:00,43.6,41.7,30.18,ENE,65,0.0,4.0,93,0.02,,---,0.50,51.00,VWS V14.01,2013-02-22 16:48:00,
2013-02-22 11:53:00,43.7,41.8,30.18,NE,46,2.0,2.0,93,0.00,,---,0.50,37.00,VWS V14.01,2013-02-22 16:53:00,
2013-02-22 11:58:00,43.7,41.8,30.18,NE,44,0.0,0.0,93,0.00,,---,0.50,33.00,VWS V14.01,2013-02-22 16:58:00,
2013-02-22 12:03:00,43.7,41.8,30.18,NE,44,0.0,0.0,93,0.00,,---,0.50,35.00,VWS V14.01,2013-02-22 17:03:00,
2013-02-22 12:09:00,43.7,41.8,30.18,NE,39,0.0,3.0,93,0.00,,---,0.50,33.00,VWS V14.01,2013-02-22 17:09:00,
2013-02-22 12:14:00,43.7,41.8,30.17,NNE,17,0.0,4.0,93,0.00,,---,0.50,32.00,VWS V14.01,2013-02-22 17:14:00,
2013-02-22 12:19:00,43.8,41.9,30.17,NNE,17,1.0,2.0,93,0.00,,---,0.50,26.00,VWS V14.01,2013-02-22 17:19:00,
2013-02-22 12:24:00,43.8,41.9,30.17,NNE,22,2.0,2.0,93,0.00,,---,0.50,42.00,VWS V14.01,2013-02-22 17:24:00,
2013-02-22 12:29:00,43.9,42.0,30.16,NNE,27,0.0,3.0,93,0.00,,---,0.50,83.00,VWS V14.01,2013-02-22 17:29:00,
2013-02-22 12:34:00,44.0,42.1,30.16,NNE,19,2.0,5.0,93,0.00,,---,0.50,53.00,VWS V14.01,2013-02-22 17:34:00,
2013-02-22 12:39:00,44.1,42.2,30.15,NNE,19,0.0,2.0,93,0.00,,---,0.50,54.00,VWS V14.01,2013-02-22 17:39:00,
2013-02-22 12:44:00,44.1,42.2,30.15,ENE,76,0.0,3.0,93,0.00,,---,0.50,33.00,VWS V14.01,2013-02-22 17:44:00,
2013-02-22 12:49:00,44.1,42.2,30.15,ENE,75,1.0,2.0,93,0.00,,---,0.50,35.00,VWS V14.01,2013-02-22 17:49:00,
2013-02-22 12:54:00,44.1,42.5,30.14,NNE,15,0.0,2.0,94,0.00,,---,0.50,53.00,VWS V14.01,2013-02-22 17:54:00,
2013-02-22 12:59:00,44.1,42.2,30.14,NNE,30,3.0,4.0,93,0.01,,---,0.51,44.00,VWS V14.01,2013-02-22 17:59:00,
2013-02-22 13:04:00,44.1,42.2,30.14,North,5,2.0,5.0,93,0.01,,---,0.51,33.00,VWS V14.01,2013-02-22 18:04:00,
2013-02-22 13:09:00,44.0,42.1,30.15,North,5,0.0,6.0,93,0.01,,---,0.51,39.00,VWS V14.01,2013-02-22 18:09:00,
2013-02-22 13:14:00,43.9,42.0,30.13,NE,49,2.0,5.0,93,0.01,,---,0.51,60.00,VWS V14.01,2013-02-22 18:14:00,
2013-02-22 13:19:00,43.8,41.9,30.14,North,11,0.0,2.0,93,0.01,,---,0.51,37.00,VWS V14.01,2013-02-22 18:19:00,
2013-02-22 13:24:00,43.8,41.9,30.14,NE,44,1.0,5.0,93,0.01,,---,0.51,33.00,VWS V14.01,2013-02-22 18:24:00,
2013-02-22 13:29:00,43.7,41.8,30.14,NNE,20,3.0,4.0,93,0.01,,---,0.51,37.00,VWS V14.01,2013-02-22 18:29:00,
2013-02-22 13:35:00,43.6,41.7,30.14,NE,41,0.0,4.0,93,0.01,,---,0.51,37.00,VWS V14.01,2013-02-22 18:35:00,
2013-02-22 13:40:00,43.5,41.6,30.14,NNE,13,0.0,3.0,93,0.01,,---,0.51,30.00,VWS V14.01,2013-02-22 18:40:00,
2013-02-22 13:45:00,43.4,41.5,30.15,NE,39,0.0,7.0,93,0.01,,---,0.51,44.00,VWS V14.01,2013-02-22 18:45:00,
2013-02-22 13:50:00,43.4,41.5,30.15,North,5,2.0,5.0,93,0.02,,---,0.52,46.00,VWS V14.01,2013-02-22 18:50:00,
2013-02-22 13:55:00,43.3,41.4,30.15,NNE,20,2.0,4.0,93,0.03,,---,0.53,49.00,VWS V14.01,2013-02-22 18:55:00,
2013-02-22 14:00:00,43.3,41.4,30.13,ENE,63,3.0,8.0,93,0.03,,---,0.54,141.00,VWS V14.01,2013-02-22 19:00:00,
2013-02-22 14:05:00,43.4,41.8,30.13,ENE,66,0.0,4.0,94,0.03,,---,0.54,76.00,VWS V14.01,2013-02-22 19:05:00,
2013-02-22 14:10:00,43.4,41.8,30.12,ENE,68,3.0,5.0,94,0.03,,---,0.54,58.00,VWS V14.01,2013-02-22 19:10:00,
2013-02-22 14:15:00,43.4,41.8,30.12,NE,54,2.0,4.0,94,0.03,,---,0.54,58.00,VWS V14.01,2013-02-22 19:15:00,
2013-02-22 14:20:00,43.3,41.7,30.12,ENE,63,3.0,5.0,94,0.03,,---,0.54,79.00,VWS V14.01,2013-02-22 19:20:00,
2013-02-22 14:25:00,43.3,41.7,30.12,North,5,0.0,4.0,94,0.03,,---,0.54,54.00,VWS V14.01,2013-02-22 19:25:00,
2013-02-22 14:30:00,43.3,41.7,30.11,ENE,59,3.0,4.0,94,0.03,,---,0.54,58.00,VWS V14.01,2013-02-22 19:30:00,
2013-02-22 14:35:00,43.3,41.7,30.12,NNE,31,0.0,8.0,94,0.03,,---,0.54,42.00,VWS V14.01,2013-02-22 19:35:00,
2013-02-22 14:40:00,43.3,41.7,30.12,NNE,23,3.0,4.0,94,0.03,,---,0.54,49.00,VWS V14.01,2013-02-22 19:40:00,
2013-02-22 14:45:00,43.3,41.7,30.13,North,360,3.0,7.0,94,0.03,,---,0.54,49.00,VWS V14.01,2013-02-22 19:45:00,
2013-02-22 14:50:00,43.2,41.6,30.14,NNW,346,0.0,7.0,94,0.03,,---,0.55,30.00,VWS V14.01,2013-02-22 19:50:00,
2013-02-22 14:55:00,43.1,41.5,30.14,NNW,348,1.0,4.0,94,0.03,,---,0.55,28.00,VWS V14.01,2013-02-22 19:55:00,
2013-02-22 15:00:00,43.0,41.4,30.14,North,355,1.0,6.0,94,0.01,,---,0.55,23.00,VWS V14.01,2013-02-22 20:00:00,
2013-02-22 15:06:00,43.0,41.4,30.14,North,355,4.0,4.0,94,0.01,,---,0.55,37.00,VWS V14.01,2013-02-22 20:06:00,
2013-02-22 15:11:00,43.0,41.4,30.14,NNE,18,3.0,4.0,94,0.01,,---,0.55,26.00,VWS V14.01,2013-02-22 20:11:00,
2013-02-22 15:16:00,42.9,41.3,30.14,NNE,19,0.0,3.0,94,0.01,,---,0.55,18.00,VWS V14.01,2013-02-22 20:16:00,
2013-02-22 15:21:00,42.9,41.3,30.13,NNE,20,2.0,4.0,94,0.02,,---,0.56,25.00,VWS V14.01,2013-02-22 20:21:00,
2013-02-22 15:26:00,42.9,41.3,30.14,NNE,15,2.0,6.0,94,0.02,,---,0.56,25.00,VWS V14.01,2013-02-22 20:26:00,
2013-02-22 15:31:00,42.9,41.3,30.15,NNE,15,3.0,4.0,94,0.02,,---,0.56,14.00,VWS V14.01,2013-02-22 20:31:00,
2013-02-22 15:36:00,42.9,41.3,30.15,NNE,13,2.0,4.0,94,0.02,,---,0.56,16.00,VWS V14.01,2013-02-22 20:36:00,
2013-02-22 15:41:00,42.8,41.2,30.15,NNW,338,2.0,6.0,94,0.02,,---,0.56,18.00,VWS V14.01,2013-02-22 20:41:00,
2013-02-22 15:46:00,42.7,41.1,30.14,North,5,4.0,6.0,94,0.02,,---,0.56,16.00,VWS V14.01,2013-02-22 20:46:00,
2013-02-22 15:51:00,42.7,41.1,30.15,North,5,2.0,6.0,94,0.02,,---,0.56,19.00,VWS V14.01,2013-02-22 20:51:00,
2013-02-22 15:56:00,42.5,40.9,30.13,North,5,0.0,4.0,94,0.01,,---,0.56,12.00,VWS V14.01,2013-02-22 20:56:00,
2013-02-22 16:01:00,42.5,40.9,30.13,North,5,0.0,0.0,94,0.02,,---,0.57,16.00,VWS V14.01,2013-02-22 21:01:00,
2013-02-22 16:06:00,42.5,40.9,30.13,NE,37,3.0,4.0,94,0.03,,---,0.58,14.00,VWS V14.01,2013-02-22 21:06:00,
2013-02-22 16:11:00,42.4,40.8,30.12,NNE,28,3.0,3.0,94,0.03,,---,0.58,40.00,VWS V14.01,2013-02-22 21:11:00,
2013-02-22 16:16:00,42.2,40.6,30.12,NE,49,5.0,5.0,94,0.03,,---,0.58,39.00,VWS V14.01,2013-02-22 21:16:00,
2013-02-22 16:22:00,42.2,40.6,30.12,North,5,2.0,3.0,94,0.02,,---,0.58,37.00,VWS V14.01,2013-02-22 21:22:00,
2013-02-22 16:27:00,42.0,40.4,30.12,ENE,61,0.0,2.0,94,0.02,,---,0.58,35.00,VWS V14.01,2013-02-22 21:27:00,
2013-02-22 16:32:00,42.0,40.4,30.12,NE,54,4.0,4.0,94,0.02,,---,0.58,33.00,VWS V14.01,2013-02-22 21:32:00,
2013-02-22 16:37:00,41.9,40.3,30.11,North,5,0.0,2.0,94,0.02,,---,0.58,42.00,VWS V14.01,2013-02-22 21:37:00,
2013-02-22 16:42:00,41.9,40.3,30.11,NNE,17,1.0,3.0,94,0.02,,---,0.58,37.00,VWS V14.01,2013-02-22 21:42:00,
2013-02-22 16:47:00,41.8,40.2,30.12,North,5,3.0,7.0,94,0.02,,---,0.58,37.00,VWS V14.01,2013-02-22 21:47:00,
2013-02-22 16:52:00,41.7,40.1,30.12,NE,44,0.0,3.0,94,0.02,,---,0.58,26.00,VWS V14.01,2013-02-22 21:52:00,
2013-02-22 16:57:00,41.7,40.1,30.11,NE,51,0.0,5.0,94,0.02,,---,0.58,33.00,VWS V14.01,2013-02-22 21:57:00,
2013-02-22 17:02:00,41.6,40.0,30.11,North,10,2.0,3.0,94,0.01,,---,0.58,23.00,VWS V14.01,2013-02-22 22:02:00,
2013-02-22 17:07:00,41.7,40.1,30.12,NE,48,0.0,5.0,94,0.00,,---,0.58,21.00,VWS V14.01,2013-02-22 22:07:00,
2013-02-22 17:12:00,41.6,40.0,30.12,NNE,24,0.0,0.0,94,0.00,,---,0.58,18.00,VWS V14.01,2013-02-22 22:12:00,
2013-02-22 17:17:00,41.7,40.1,30.12,North,11,0.0,3.0,94,0.00,,---,0.58,18.00,VWS V14.01,2013-02-22 22:17:00,
2013-02-22 17:22:00,41.7,40.1,30.12,NE,41,0.0,2.0,94,0.00,,---,0.58,19.00,VWS V14.01,2013-02-22 22:22:00,
2013-02-22 17:27:00,41.7,40.1,30.12,NNE,13,2.0,3.0,94,0.00,,---,0.58,14.00,VWS V14.01,2013-02-22 22:27:00,
2013-02-22 17:32:00,41.7,40.1,30.12,NNE,24,2.0,2.0,94,0.00,,---,0.58,12.00,VWS V14.01,2013-02-22 22:32:00,
2013-02-22 17:37:00,41.6,40.0,30.12,NE,47,0.0,3.0,94,0.00,,---,0.58,7.00,VWS V14.01,2013-02-22 22:37:00,
2013-02-22 17:42:00,41.6,40.0,30.12,NE,47,0.0,2.0,94,0.00,,---,0.58,7.00,VWS V14.01,2013-02-22 22:42:00,
2013-02-22 17:48:00,41.6,40.0,30.11,NNE,31,0.0,3.0,94,0.00,,---,0.58,7.00,VWS V14.01,2013-02-22 22:48:00,
2013-02-22 17:53:00,41.6,40.0,30.11,NNE,23,0.0,3.0,94,0.00,,---,0.58,5.00,VWS V14.01,2013-02-22 22:53:00,
2013-02-22 17:58:00,41.6,40.0,30.12,NE,40,3.0,7.0,94,0.00,,---,0.58,0.00,VWS V14.01,2013-02-22 22:58:00,
2013-02-22 18:03:00,41.6,40.0,30.12,NE,51,0.0,0.0,94,0.00,,---,0.58,0.00,VWS V14.01,2013-02-22 23:03:00,
2013-02-22 18:08:00,41.6,40.0,30.12,NE,37,0.0,3.0,94,0.00,,---,0.58,0.00,VWS V14.01,2013-02-22 23:08:00,
2013-02-22 18:13:00,41.6,40.0,30.11,NE,38,0.0,2.0,94,0.00,,---,0.58,0.00,VWS V14.01,2013-02-22 23:13:00,
2013-02-22 18:18:00,41.6,40.0,30.12,NE,46,2.0,5.0,94,0.00,,---,0.58,0.00,VWS V14.01,2013-02-22 23:18:00,
2013-02-22 18:23:00,41.6,40.0,30.12,NNE,28,3.0,9.0,94,0.00,,---,0.58,0.00,VWS V14.01,2013-02-22 23:23:00,
2013-02-22 18:28:00,41.5,39.9,30.11,NE,52,0.0,4.0,94,0.00,,---,0.58,0.00,VWS V14.01,2013-02-22 23:28:00,
2013-02-22 18:33:00,41.5,39.9,30.11,NE,53,0.0,4.0,94,0.00,,---,0.58,0.00,VWS V14.01,2013-02-22 23:33:00,
2013-02-22 18:38:00,41.4,39.8,30.11,NNE,19,3.0,5.0,94,0.00,,---,0.58,0.00,VWS V14.01,2013-02-22 23:38:00,
2013-02-22 18:43:00,41.4,39.8,30.10,NE,50,4.0,7.0,94,0.00,,---,0.58,0.00,VWS V14.01,2013-02-22 23:43:00,
2013-02-22 18:48:00,41.4,39.8,30.11,NE,40,2.0,6.0,94,0.00,,---,0.58,0.00,VWS V14.01,2013-02-22 23:48:00,
2013-02-22 18:53:00,41.3,39.7,30.12,NE,50,0.0,3.0,94,0.00,,---,0.58,0.00,VWS V14.01,2013-02-22 23:53:00,
2013-02-22 18:58:00,41.3,40.0,30.11,NNE,19,1.0,6.0,95,0.00,,---,0.58,0.00,VWS V14.01,2013-02-22 23:58:00,
2013-02-22 19:04:00,41.3,40.0,30.11,NE,39,0.0,4.0,95,0.00,,---,0.58,0.00,VWS V14.01,2013-02-23 00:04:00,
2013-02-22 19:09:00,41.2,39.9,30.11,NNE,25,0.0,5.0,95,0.00,,---,0.58,0.00,VWS V14.01,2013-02-23 00:09:00,
2013-02-22 19:14:00,41.2,39.6,30.11,NNE,27,0.0,3.0,94,0.00,,---,0.58,0.00,VWS V14.01,2013-02-23 00:14:00,
2013-02-22 19:19:00,41.1,39.5,30.11,NNE,24,0.0,3.0,94,0.00,,---,0.58,0.00,VWS V14.01,2013-02-23 00:19:00,
2013-02-22 19:24:00,41.1,39.8,30.11,NNE,26,3.0,4.0,95,0.00,,---,0.58,0.00,VWS V14.01,2013-02-23 00:24:00,
2013-02-22 19:29:00,41.1,39.8,30.11,NNE,24,0.0,0.0,95,0.00,,---,0.58,0.00,VWS V14.01,2013-02-23 00:29:00,
2013-02-22 19:34:00,41.1,39.8,30.11,ENE,58,3.0,4.0,95,0.00,,---,0.58,0.00,VWS V14.01,2013-02-23 00:34:00,
2013-02-22 19:39:00,41.0,39.7,30.11,NE,49,0.0,4.0,95,0.00,,---,0.58,0.00,VWS V14.01,2013-02-23 00:39:00,
2013-02-22 19:44:00,41.1,39.8,30.12,NE,38,2.0,4.0,95,0.00,,---,0.58,0.00,VWS V14.01,2013-02-23 00:44:00,
2013-02-22 19:49:00,41.1,39.8,30.12,NNE,21,0.0,3.0,95,0.00,,---,0.58,0.00,VWS V14.01,2013-02-23 00:49:00,
2013-02-22 19:54:00,41.0,39.7,30.12,NNE,20,0.0,0.0,95,0.00,,---,0.58,0.00,VWS V14.01,2013-02-23 00:54:00,
2013-02-22 19:59:00,41.0,39.7,30.13,NNE,19,3.0,4.0,95,0.00,,---,0.58,0.00,VWS V14.01,2013-02-23 00:59:00,
2013-02-22 20:04:00,41.0,39.7,30.13,NNE,17,0.0,3.0,95,0.00,,---,0.58,0.00,VWS V14.01,2013-02-23 01:04:00,
2013-02-22 20:09:00,41.0,39.7,30.14,NNE,19,0.0,4.0,95,0.00,,---,0.58,0.00,VWS V14.01,2013-02-23 01:09:00,
2013-02-22 20:14:00,41.0,39.7,30.14,NE,40,1.0,5.0,95,0.00,,---,0.58,0.00,VWS V14.01,2013-02-23 01:14:00,
2013-02-22 20:20:00,41.0,39.7,30.14,NNE,17,4.0,4.0,95,0.00,,---,0.58,0.00,VWS V14.01,2013-02-23 01:20:00,
2013-02-22 20:25:00,40.9,39.6,30.13,NNE,17,0.0,9.0,95,0.00,,---,0.58,0.00,VWS V14.01,2013-02-23 01:25:00,
2013-02-22 20:30:00,40.9,39.6,30.13,NNE,17,0.0,4.0,95,0.00,,---,0.58,0.00,VWS V14.01,2013-02-23 01:30:00,
2013-02-22 20:35:00,40.9,39.6,30.13,NE,55,2.0,4.0,95,0.00,,---,0.58,0.00,VWS V14.01,2013-02-23 01:35:00,
2013-02-22 20:40:00,40.9,39.6,30.13,NNE,21,0.0,3.0,95,0.00,,---,0.58,0.00,VWS V14.01,2013-02-23 01:40:00,
2013-02-22 20:45:00,40.9,39.6,30.13,NE,55,2.0,6.0,95,0.00,,---,0.58,0.00,VWS V14.01,2013-02-23 01:45:00,
2013-02-22 20:50:00,40.9,39.6,30.13,NE,38,4.0,4.0,95,0.00,,---,0.58,0.00,VWS V14.01,2013-02-23 01:50:00,
2013-02-22 20:55:00,40.9,39.6,30.13,North,5,0.0,6.0,95,0.00,,---,0.58,0.00,VWS V14.01,2013-02-23 01:55:00,
2013-02-22 21:00:00,40.9,39.6,30.13,North,360,1.0,5.0,95,0.00,,---,0.58,0.00,VWS V14.01,2013-02-23 02:00:00,
2013-02-22 21:05:00,40.9,39.6,30.13,NE,44,0.0,4.0,95,0.00,,---,0.58,0.00,VWS V14.01,2013-02-23 02:05:00,
2013-02-22 21:10:00,40.9,39.6,30.13,North,9,0.0,5.0,95,0.00,,---,0.58,0.00,VWS V14.01,2013-02-23 02:10:00,
2013-02-22 21:15:00,40.8,39.5,30.13,North,9,2.0,4.0,95,0.00,,---,0.58,0.00,VWS V14.01,2013-02-23 02:15:00,
2013-02-22 21:20:00,40.9,39.6,30.13,NE,35,0.0,5.0,95,0.00,,---,0.58,0.00,VWS V14.01,2013-02-23 02:20:00,
2013-02-22 21:25:00,40.8,39.5,30.12,NNE,33,0.0,4.0,95,0.00,,---,0.58,0.00,VWS V14.01,2013-02-23 02:25:00,
2013-02-22 21:30:00,40.8,39.5,30.13,NE,47,0.0,3.0,95,0.00,,---,0.58,0.00,VWS V14.01,2013-02-23 02:30:00,
2013-02-22 21:36:00,40.8,39.5,30.13,NE,49,0.0,2.0,95,0.00,,---,0.58,0.00,VWS V14.01,2013-02-23 02:36:00,
2013-02-22 21:41:00,40.8,39.5,30.13,NE,42,0.0,3.0,95,0.00,,---,0.58,0.00,VWS V14.01,2013-02-23 02:41:00,
2013-02-22 21:46:00,40.8,39.5,30.13,NE,40,3.0,3.0,95,0.00,,---,0.58,0.00,VWS V14.01,2013-02-23 02:46:00,
2013-02-22 21:51:00,40.8,39.5,30.13,NNE,18,0.0,6.0,95,0.00,,---,0.58,0.00,VWS V14.01,2013-02-23 02:51:00,
2013-02-22 21:56:00,40.8,39.5,30.12,NNE,30,0.0,3.0,95,0.00,,---,0.58,0.00,VWS V14.01,2013-02-23 02:56:00,
2013-02-22 22:01:00,40.8,39.5,30.12,NE,40,0.0,3.0,95,0.00,,---,0.58,0.00,VWS V14.01,2013-02-23 03:01:00,
2013-02-22 22:06:00,40.8,39.5,30.13,NE,38,1.0,4.0,95,0.00,,---,0.58,0.00,VWS V14.01,2013-02-23 03:06:00,
2013-02-22 22:11:00,40.7,39.4,30.13,NNE,22,2.0,5.0,95,0.00,,---,0.58,0.00,VWS V14.01,2013-02-23 03:11:00,
2013-02-22 22:16:00,40.7,39.4,30.12,ENE,57,2.0,6.0,95,0.00,,---,0.58,0.00,VWS V14.01,2013-02-23 03:16:00,
2013-02-22 22:21:00,40.6,39.3,30.12,NNE,16,4.0,6.0,95,0.00,,---,0.58,0.00,VWS V14.01,2013-02-23 03:21:00,
2013-02-22 22:26:00,40.6,39.3,30.12,ENE,59,1.0,6.0,95,0.00,,---,0.58,0.00,VWS V14.01,2013-02-23 03:26:00,
2013-02-22 22:31:00,40.6,39.3,30.12,NNE,17,4.0,4.0,95,0.00,,---,0.58,0.00,VWS V14.01,2013-02-23 03:31:00,
2013-02-22 22:36:00,40.6,39.5,30.12,NE,43,4.0,6.0,96,0.00,,---,0.58,0.00,VWS V14.01,2013-02-23 03:36:00,
2013-02-22 22:41:00,40.6,39.5,30.12,NNE,21,5.0,6.0,96,0.00,,---,0.58,0.00,VWS V14.01,2013-02-23 03:41:00,
2013-02-22 22:46:00,40.6,39.5,30.13,North,9,0.0,5.0,96,0.00,,---,0.58,0.00,VWS V14.01,2013-02-23 03:46:00,
2013-02-22 22:51:00,40.6,39.5,30.12,NNE,24,0.0,6.0,96,0.00,,---,0.58,0.00,VWS V14.01,2013-02-23 03:51:00,
2013-02-22 22:56:00,40.6,39.5,30.13,North,9,6.0,6.0,96,0.00,,---,0.58,0.00,VWS V14.01,2013-02-23 03:56:00,
2013-02-22 23:02:00,40.6,39.5,30.12,NNE,24,1.0,5.0,96,0.00,,---,0.58,0.00,VWS V14.01,2013-02-23 04:02:00,
2013-02-22 23:07:00,40.6,39.5,30.11,NE,51,0.0,3.0,96,0.00,,---,0.58,0.00,VWS V14.01,2013-02-23 04:07:00,
2013-02-22 23:12:00,40.5,39.2,30.11,NNE,24,4.0,4.0,95,0.00,,---,0.58,0.00,VWS V14.01,2013-02-23 04:12:00,
2013-02-22 23:17:00,40.5,39.2,30.11,NNE,12,1.0,2.0,95,0.00,,---,0.58,0.00,VWS V14.01,2013-02-23 04:17:00,
2013-02-22 23:22:00,40.5,39.2,30.12,North,5,0.0,0.0,95,0.00,,---,0.58,0.00,VWS V14.01,2013-02-23 04:22:00,
2013-02-22 23:27:00,40.5,39.2,30.12,North,5,0.0,0.0,95,0.00,,---,0.58,0.00,VWS V14.01,2013-02-23 04:27:00,
2013-02-22 23:32:00,40.5,39.2,30.11,NNE,25,0.0,2.0,95,0.00,,---,0.58,0.00,VWS V14.01,2013-02-23 04:32:00,
2013-02-22 23:37:00,40.5,39.5,30.11,North,11,0.0,0.0,96,0.00,,---,0.58,0.00,VWS V14.01,2013-02-23 04:37:00,
2013-02-22 23:42:00,40.5,39.5,30.11,North,11,0.0,0.0,96,0.00,,---,0.58,0.00,VWS V14.01,2013-02-23 04:42:00,
2013-02-22 23:47:00,40.4,39.3,30.11,North,11,0.0,0.0,96,0.00,,---,0.58,0.00,VWS V14.01,2013-02-23 04:47:00,
2013-02-22 23:52:00,40.5,39.5,30.11,North,11,0.0,0.0,96,0.00,,---,0.58,0.00,VWS V14.01,2013-02-23 04:52:00,
2013-02-22 23:57:00,40.5,39.5,30.10,NE,37,0.0,0.0,96,0.00,,---,0.58,0.00,VWS V14.01,2013-02-23 04:57:00,